Regional Weather Roundup
Issued by NWS Goodland, KS

Home | Current Version | Previous Version | Graphics & Text | Print | Product List | Glossary On
Versions: 1 2 3 4 5 6 7 8 9 10 11 12 13 14 15 16 17 18 19 20 21 22 23 24 25 26 27 28 29 30 31 32 33 34 35 36 37 38 39 40 41 42 43 44 45 46 47 48 49 50
000
ASUS43 KGLD 250259
RWRGLD

GOODLAND FORECAST AREA HOURLY WEATHER ROUNDUP
NATIONAL WEATHER SERVICE GOODLAND KS
900 PM MDT SUN MAY 24 2015

...OFFICIAL OBSERVATIONS...

CITY           SKY/WX    TMP DP  RH WIND       PRES   REMARKS
GOODLAND KS    LGT RAIN  52  49  89 MISG      29.83F
HILL CITY KS   CLOUDY    63  60  90 S9        29.81R
IMPERIAL NEB   RAIN      52  50  93 SE10      29.84S
MCCOOK NEB     TSTM      57  50  77 W24       29.84R
AKRON CO       CLOUDY    47  46  97 NW5       29.82R
BURLINGTON CO  CLOUDY    50  48  93 NE7       29.81R
LIMON CO       CLOUDY    47  44  90 E6        29.84S
$$

...UNOFFICIAL OBSERVATIONS...

CITY           SKY/WX    TMP DP  RH WIND       PRES   REMARKS
COLBY KS       LGT RAIN  55  54  94 NW12      29.84S
GOVE KS          N/A     63  32  31 MISG        N/A
LENORA KS        N/A     62  32  32 MISG        N/A
NORTON KS      MOCLDY    61  55  82 CALM      29.79S
SHARON SPRINGS   N/A     54  51  90 MISG        N/A
KIT CARSON CO    N/A     54  49  83 MISG        N/A
$$



USA.gov is the U.S. government's official web portal to all federal, state and local government web resources and services.